Oakland, CA

12:36 PM PDT on September 27, 2016 (GMT -0700)
Metro Oakland International

Weather History for KOAK - March, 2014

Change the Weather History Date:

Tuesday, March 4, 2014

  Actual Average Record
Temperature  
Mean Temperature 61 °F 53 °F  
Max Temperature 66 °F 61 °F 77 °F (1984)
Min Temperature 55 °F 46 °F 37 °F (1953)
Degree Days  
Heating Degree Days 4 12  
Month to date heating degree days 24 48  
Since 1 July heating degree days 1845 2070  
Cooling Degree Days 0 0  
Month to date cooling degree days 0 0  
Year to date cooling degree days 0 0  
Growing Degree Days 10 (Base 50)    
Moisture  
Dew Point 52 °F    
Average Humidity 77    
Maximum Humidity 86    
Minimum Humidity 67    
Precipitation  
Precipitation T in 0.12 in 1.12 in (1951)
Month to date precipitation 0.15 0.50  
Year to date precipitation 3.85 8.44  
Since 1 July precipitation 5.92  
Sea Level Pressure  
Sea Level Pressure 30.09 in    
Wind  
Wind Speed 5 mph (NNE)    
Max Wind Speed 17 mph    
Max Gust Speed -    
Visibility 10 miles    
Events Rain    
T = Trace of Precipitation, MM = Missing Value Source: NWS Daily Summary

Daily Weather History Graph

Daily Weather History Graph

Search for Another Location

Airport or City:

Trip Planner

Search our weather history database for the weather conditions in past years. The results will help you decide how hot, cold, wet, or windy it might be!

Date:

Astronomy

Mar. 04, 2014 Rise Set
Actual Time 6:36 AM PST 6:05 PM PST
Civil Twilight 6:09 AM PST 6:31 PM PST
Nautical Twilight 5:39 AM PST 7:02 PM PST
Astronomical Twilight 5:09 AM PST 7:32 PM PST
Moon 8:30 AM PST (3/4) 10:13 PM PST (3/4)
Length of Visible Light 12h 22m
Length of Day
11h 29m
Waxing Crescent, 15% of the Moon is Illuminated
Mar 4
Waxing Crescent
Mar 8
First Quarter
Mar 16
Full
Mar 23
Last Quarter
Mar 30
New

Hourly Weather History & Observations

Time (PST) Temp. Dew Point Humidity Pressure Visibility Wind Dir Wind Speed Gust Speed Precip Events Conditions
12:53 AM 55.9 °F 48.9 °F 77% 30.07 in 10.0 mi East 6.9 mph - N/A   Overcast
1:53 AM 55.9 °F 50.0 °F 80% 30.08 in 10.0 mi SE 5.8 mph - N/A   Overcast
2:53 AM 55.0 °F 51.1 °F 86% 30.07 in 10.0 mi ENE 5.8 mph - 0.00 in Rain Light Rain
3:53 AM 55.0 °F 52.0 °F 89% 30.06 in 7.0 mi ENE 4.6 mph - 0.00 in   Overcast
4:53 AM 55.0 °F 52.0 °F 89% 30.06 in 10.0 mi NE 3.5 mph - N/A   Overcast
5:53 AM 55.9 °F 52.0 °F 87% 30.08 in 7.0 mi Calm Calm - N/A   Overcast
6:12 AM 55.4 °F 51.8 °F 88% 30.08 in 7.0 mi North 3.5 mph - N/A   Overcast
6:37 AM 55.4 °F 51.8 °F 88% 30.08 in 9.0 mi NE 5.8 mph - N/A   Overcast
6:53 AM 55.0 °F 52.0 °F 89% 30.09 in 10.0 mi NE 5.8 mph - N/A   Overcast
7:53 AM 57.0 °F 53.1 °F 87% 30.11 in 10.0 mi ENE 5.8 mph - N/A   Overcast
8:53 AM 60.1 °F 53.1 °F 78% 30.11 in 10.0 mi East 4.6 mph - N/A   Overcast
9:53 AM 62.1 °F 53.1 °F 72% 30.12 in 10.0 mi ENE 3.5 mph - N/A   Overcast
10:53 AM 61.0 °F 53.1 °F 75% 30.12 in 10.0 mi NE 8.1 mph - N/A   Overcast
11:53 AM 63.0 °F 53.1 °F 70% 30.12 in 10.0 mi NNE 6.9 mph - N/A   Overcast
12:53 PM 64.9 °F 53.1 °F 65% 30.09 in 10.0 mi West 8.1 mph - N/A   Overcast
1:33 PM 62.6 °F 53.6 °F 72% 30.07 in 10.0 mi NW 8.1 mph - N/A   Overcast
1:53 PM 62.1 °F 53.1 °F 72% 30.07 in 10.0 mi WNW 9.2 mph - N/A   Overcast
2:53 PM 63.0 °F 54.0 °F 72% 30.07 in 10.0 mi NW 11.5 mph - N/A   Overcast
3:53 PM 62.1 °F 53.1 °F 72% 30.07 in 10.0 mi NW 11.5 mph - N/A   Overcast
4:53 PM 60.1 °F 54.0 °F 80% 30.06 in 10.0 mi WNW 8.1 mph - N/A   Overcast
5:53 PM 60.1 °F 54.0 °F 80% 30.06 in 10.0 mi WNW 6.9 mph - N/A   Mostly Cloudy
6:53 PM 59.0 °F 53.1 °F 81% 30.08 in 10.0 mi NW 3.5 mph - N/A   Mostly Cloudy
7:53 PM 59.0 °F 52.0 °F 78% 30.08 in 10.0 mi NW 3.5 mph - N/A   Scattered Clouds
8:53 PM 55.9 °F 52.0 °F 87% 30.09 in 10.0 mi Calm Calm - N/A   Partly Cloudy
9:53 PM 55.0 °F 52.0 °F 89% 30.10 in 9.0 mi Calm Calm - N/A   Scattered Clouds
10:33 PM 55.4 °F 53.6 °F 94% 30.10 in 10.0 mi Calm Calm - N/A   Mostly Cloudy
10:53 PM 55.0 °F 52.0 °F 89% 30.10 in 10.0 mi Calm Calm - N/A   Overcast
11:42 PM 55.4 °F 51.8 °F 88% 30.10 in 10.0 mi NNE 3.5 mph - N/A   Mostly Cloudy
11:53 PM 55.0 °F 52.0 °F 89% 30.10 in 10.0 mi Calm Calm - N/A   Mostly Cloudy